Location: Gro�sch�nbrunn
(49.5760°N, 11.8868°E)
Time: 17:15:44
(UTC+00:00)

Sich 1 Rocket - Pass Details

Date: 18 September 2020
Orbit: 616 x 653 km, 82.5° (Epoch: 31 October)

Event Time Altitude Azimuth Distance (km) Brightness Sun altitude
Rises 17:43:31 0° 159° (SSE) 2,918 6.7 -4.9°
Reaches altitude 10° 17:45:57 10° 149° (SSE) 2,021 5.8 -5.3°
Maximum altitude 17:49:49 29° 89° (E) 1,172 4.5 -5.9°
Drops below altitude 10° 17:53:45 10° 29° (NNE) 2,055 6.0 -6.5°
Sets 17:56:14 0° 19° (NNE) 2,976 7.0 -6.9°
